Terminal Aerodrome Forecast
Issued by NWS Green Bay, WI

Home | Current Version | Previous Version | Graphics & Text | Print | Product List | Glossary On
Versions: 1 2 3 4 5 6 7 8 9 10 11 12 13 14 15 16 17 18 19 20 21 22 23 24 25 26 27 28 29 30 31 32 33 34 35 36 37 38 39 40 41 42 43 44 45 46 47 48
000
FTUS43 KGRB 191343 AAA
TAFGRB
TAF AMD
KGRB 191343Z 1914/2012 23006KT P6SM BKN007
      TEMPO 1914/1916 SCT007 BKN012
     FM191600 25007KT P6SM BKN025
     FM191800 25008KT P6SM VCSH SCT025 BKN035
     FM200400 30003KT 3SM BR SCT008 BKN050
     FM200700 00000KT 1SM BR BKN008=

USA.gov is the U.S. government's official web portal to all federal, state and local government web resources and services.